| time (UTC) | temp C | wind direction | speed KPH | gust KPH | rain 1hr cm | rain 24hr cm | rain mn cm | humidity % | barometer mb |
| 20260504205559 | 26 | 290 | 1.6 | 4.8 | 0.00 | 0.00 | 0.00 | 22 | 1016.2 |
| 20260504204000 | 26 | 188 | 1.6 | 4.8 | 0.00 | 0.00 | 0.00 | 25 | 1016.3 |
| 20260504203159 | 26 | 311 | 0.0 | 3.2 | 0.00 | 0.00 | 0.00 | 24 | 1016.4 |
| 20260504201600 | 26 | 148 | 0.0 | 3.2 | 0.00 | 0.00 | 0.00 | 27 | 1016.7 |
| 20260504200759 | 25 | 98 | 1.6 | 4.8 | 0.00 | 0.00 | 0.00 | 24 | 1016.7 |
| 20260504200003 | 25 | 123 | 0.0 | 3.2 | 0.00 | 0.00 | 0.00 | 24 | 1016.8 |
| 20260504195201 | 25 | 47 | 1.6 | 8.0 | 0.00 | 0.00 | 0.00 | 25 | 1016.8 |
| 20260504194401 | 25 | 232 | 0.0 | 3.2 | 0.00 | 0.00 | 0.00 | 25 | 1016.9 |
| 20260504193601 | 24 | 116 | 0.0 | 6.4 | 0.00 | 0.00 | 0.00 | 28 | 1016.9 |
| 20260504192801 | 24 | 170 | 1.6 | 4.8 | 0.00 | 0.00 | 0.00 | 26 | 1017.1 |
| 20260504192001 | 24 | 342 | 3.2 | 4.8 | 0.00 | 0.00 | 0.00 | 26 | 1017.1 |
| 20260504191200 | 24 | 242 | 3.2 | 6.4 | 0.00 | 0.00 | 0.00 | 29 | 1017.2 |
| 20260504190400 | 23 | 114 | 0.0 | 1.6 | 0.00 | 0.00 | 0.00 | 30 | 1017.3 |
| 20260504184759 | 23 | 274 | 1.6 | 6.4 | 0.00 | 0.00 | 0.00 | 30 | 1017.7 |
| 20260504183959 | 23 | 197 | 0.0 | 4.8 | 0.00 | 0.00 | 0.00 | 29 | 1017.8 |
| 20260504183159 | 23 | 346 | 1.6 | 4.8 | 0.00 | 0.00 | 0.00 | 28 | 1017.8 |
| 20260504182358 | 23 | 6 | 0.0 | 6.4 | 0.00 | 0.00 | 0.00 | 29 | 1018.0 |
| 20260504181559 | 23 | 33 | 1.6 | 8.0 | 0.00 | 0.00 | 0.00 | 27 | 1018.0 |
| 20260504180800 | 23 | 285 | 0.0 | 4.8 | 0.00 | 0.00 | 0.00 | 28 | 1018.1 |
| 20260504175201 | 23 | 291 | 1.6 | 4.8 | 0.00 | 0.00 | 0.00 | 28 | 1018.3 |
| 20260504173600 | 22 | 267 | 0.0 | 4.8 | 0.00 | 0.00 | 0.00 | 30 | 1018.5 |
| 20260504172802 | 22 | 354 | 1.6 | 4.8 | 0.00 | 0.00 | 0.00 | 29 | 1018.5 |
| 20260504170401 | 22 | 75 | 0.0 | 3.2 | 0.00 | 0.00 | 0.00 | 34 | 1018.9 |
| 20260504150400 | 21 | 155 | 0.0 | 3.2 | 0.00 | 0.00 | 0.00 | 36 | 1020.0 |
| 20260504130359 | 10 | 246 | 0.0 | 0.0 | 0.00 | 0.00 | 0.00 | 73 | 1020.1 |
| 20260504110359 | 3 | 246 | 0.0 | 0.0 | 0.00 | 0.00 | 0.00 | 78 | 1019.6 |
| 20260504081558 | 5 | 246 | 0.0 | 0.0 | 0.00 | 0.00 | 0.00 | 80 | 1019.5 |
| 20260504080758 | 5 | 246 | 0.0 | 0.0 | 0.00 | 0.00 | 0.00 | 81 | 1019.5 |
| 20260504070359 | 5 | 246 | 0.0 | 0.0 | 0.00 | 0.00 | 0.00 | 82 | 1019.7 |
| 20260504050358 | 6 | 246 | 0.0 | 0.0 | 0.00 | 0.00 | 0.00 | 82 | 1020.3 |
| 20260504045602 | 6 | 246 | 0.0 | 0.0 | 0.00 | 0.00 | 0.00 | 82 | 1020.3 |
| 20260504044801 | 6 | 246 | 0.0 | 0.0 | 0.00 | 0.00 | 0.00 | 82 | 1020.3 |
| 20260504044001 | 7 | 246 | 0.0 | 0.0 | 0.00 | 0.00 | 0.00 | 82 | 1020.5 |
| 20260504043202 | 7 | 246 | 0.0 | 0.0 | 0.00 | 0.00 | 0.00 | 82 | 1020.4 |
| 20260504042401 | 7 | 246 | 0.0 | 0.0 | 0.00 | 0.00 | 0.00 | 82 | 1020.4 |
| 20260504041601 | 7 | 246 | 0.0 | 0.0 | 0.00 | 0.00 | 0.00 | 82 | 1020.3 |
| 20260504040801 | 7 | 246 | 0.0 | 0.0 | 0.00 | 0.00 | 0.00 | 81 | 1020.3 |
| 20260504040006 | 7 | 246 | 0.0 | 0.0 | 0.00 | 0.00 | 0.00 | 80 | 1020.2 |
| 20260504035201 | 7 | 246 | 0.0 | 0.0 | 0.00 | 0.00 | 0.00 | 80 | 1020.4 |
| 20260504033600 | 8 | 246 | 0.0 | 0.0 | 0.00 | 0.00 | 0.00 | 80 | 1020.4 |
| 20260504031201 | 8 | 246 | 0.0 | 0.0 | 0.00 | 0.00 | 0.00 | 76 | 1020.4 |
| 20260504030400 | 8 | 246 | 0.0 | 0.0 | 0.00 | 0.00 | 0.00 | 76 | 1020.4 |
| 20260504025600 | 9 | 246 | 0.0 | 0.0 | 0.00 | 0.00 | 0.00 | 74 | 1020.2 |
| 20260504024800 | 9 | 245 | 0.0 | 0.0 | 0.00 | 0.00 | 0.00 | 74 | 1020.2 |
| 20260504024000 | 10 | 246 | 0.0 | 0.0 | 0.00 | 0.00 | 0.00 | 73 | 1020.3 |
| 20260504023159 | 10 | 247 | 0.0 | 0.0 | 0.00 | 0.00 | 0.00 | 72 | 1020.1 |
| 20260504022359 | 10 | 246 | 0.0 | 0.0 | 0.00 | 0.00 | 0.00 | 70 | 1020.0 |
| 20260504021600 | 10 | 246 | 0.0 | 0.0 | 0.00 | 0.00 | 0.00 | 68 | 1019.9 |
| 20260504020759 | 10 | 247 | 0.0 | 0.0 | 0.00 | 0.00 | 0.00 | 68 | 1019.9 |
| 20260504015201 | 11 | 246 | 0.0 | 0.0 | 0.00 | 0.00 | 0.00 | 65 | 1019.5 |
| 20260504013601 | 11 | 247 | 0.0 | 0.0 | 0.00 | 0.00 | 0.00 | 61 | 1019.5 |
| 20260504012801 | 12 | 247 | 0.0 | 0.0 | 0.00 | 0.00 | 0.00 | 60 | 1019.2 |
| 20260504011200 | 13 | 246 | 0.0 | 0.0 | 0.00 | 0.00 | 0.00 | 55 | 1019.1 |
| 20260504010401 | 13 | 247 | 0.0 | 0.0 | 0.00 | 0.00 | 0.00 | 52 | 1018.9 |
| 20260504005600 | 14 | 246 | 0.0 | 0.0 | 0.00 | 0.00 | 0.00 | 51 | 1018.9 |
| 20260504004759 | 15 | 246 | 0.0 | 0.0 | 0.00 | 0.00 | 0.00 | 48 | 1018.9 |
| 20260504003159 | 16 | 246 | 0.0 | 0.0 | 0.00 | 0.00 | 0.00 | 45 | 1018.8 |
| 20260504001559 | 17 | 246 | 0.0 | 0.0 | 0.00 | 0.00 | 0.00 | 41 | 1018.7 |
| 20260503235159 | 18 | 267 | 0.0 | 0.0 | 0.00 | 0.00 | 0.00 | 35 | 1018.6 |
| 20260503234400 | 19 | 267 | 0.0 | 1.6 | 0.00 | 0.00 | 0.00 | 34 | 1018.7 |
| 20260503233559 | 20 | 273 | 0.0 | 1.6 | 0.00 | 0.00 | 0.00 | 32 | 1018.6 |
| 20260503232800 | 20 | 308 | 0.0 | 3.2 | 0.00 | 0.00 | 0.00 | 31 | 1018.5 |
| 20260503232000 | 21 | 270 | 0.0 | 6.4 | 0.00 | 0.00 | 0.00 | 30 | 1018.6 |
| 20260503231159 | 22 | 32 | 1.6 | 6.4 | 0.00 | 0.00 | 0.00 | 26 | 1018.6 |
| 20260503230400 | 22 | 337 | 0.0 | 1.6 | 0.00 | 0.00 | 0.00 | 25 | 1018.7 |
| 20260503225601 | 22 | 15 | 0.0 | 3.2 | 0.00 | 0.00 | 0.00 | 28 | 1018.6 |
| 20260503224801 | 22 | 284 | 1.6 | 3.2 | 0.00 | 0.00 | 0.00 | 27 | 1018.6 |
| 20260503224001 | 22 | 228 | 1.6 | 4.8 | 0.00 | 0.00 | 0.00 | 27 | 1018.6 |
| 20260503223200 | 22 | 228 | 0.0 | 3.2 | 0.00 | 0.00 | 0.00 | 29 | 1018.6 |
| 20260503222400 | 22 | 294 | 0.0 | 3.2 | 0.00 | 0.00 | 0.00 | 30 | 1018.7 |
| 20260503221601 | 22 | 90 | 0.0 | 4.8 | 0.00 | 0.00 | 0.00 | 26 | 1018.7 |
| 20260503220800 | 22 | 287 | 1.6 | 4.8 | 0.00 | 0.00 | 0.00 | 27 | 1018.7 |
| 20260503220004 | 22 | 277 | 1.6 | 3.2 | 0.00 | 0.00 | 0.00 | 27 | 1018.9 |
| 20260503215159 | 22 | 285 | 0.0 | 6.4 | 0.00 | 0.00 | 0.00 | 29 | 1018.9 |
| 20260503214401 | 22 | 245 | 0.0 | 8.0 | 0.00 | 0.00 | 0.00 | 29 | 1018.9 |
| 20260503213600 | 21 | 278 | 0.0 | 6.4 | 0.00 | 0.00 | 0.00 | 27 | 1018.9 |
| 20260503212801 | 22 | 262 | 1.6 | 6.4 | 0.00 | 0.00 | 0.00 | 25 | 1019.0 |
| 20260503212001 | 22 | 301 | 1.6 | 6.4 | 0.00 | 0.00 | 0.00 | 27 | 1019.1 |
| 20260503211201 | 21 | 280 | 1.6 | 6.4 | 0.00 | 0.00 | 0.00 | 26 | 1019.1 |